Location: Sternwarte Stuttgart
(48.7670°N, 9.1830°E)
Time: 20:55:52
(UTC+01:00)

ISS - All Passes

Search period start: 01 March 2017 00:00
Search period end: 11 March 2017 00:00
Orbit: 400 x 410 km, 51.6° (Epoch: 02 March)

Date Brightness Start Highest point End Pass type
(mag) Time Alt. Az. Time Alt. Az. Time Alt. Az.
01 Mar - 07:30:27 10° SW 07:33:36 42° SSE 07:36:46 10° ENE daylight
01 Mar - 09:06:46 10° W 09:10:03 60° NNW 09:13:21 10° ENE daylight
01 Mar - 10:43:34 10° WNW 10:46:50 53° N 10:50:05 10° E daylight
01 Mar - 12:20:07 10° WNW 12:23:23 58° SSW 12:26:38 10° SE daylight
01 Mar - 13:58:00 10° WSW 13:59:18 12° SW 14:00:37 10° SSW daylight
02 Mar - 06:38:42 10° SSW 06:41:32 27° SE 06:44:24 10° E daylight
02 Mar - 08:14:30 10° WSW 08:17:49 77° NNW 08:21:08 10° ENE daylight
02 Mar - 09:51:19 10° WNW 09:54:33 49° N 09:57:47 10° E daylight
02 Mar - 11:27:54 10° WNW 11:31:13 87° SSW 11:34:32 10° ESE daylight
02 Mar - 13:04:53 10° W 13:07:21 20° SW 13:09:49 10° S daylight
03 Mar - 05:47:21 10° S 05:49:33 17° SE 05:51:45 10° E visible
03 Mar - 07:22:18 10° WSW 07:25:37 77° SSE 07:28:56 10° ENE daylight
03 Mar - 08:59:01 10° W 09:02:15 50° N 09:05:30 10° ENE daylight
03 Mar - 10:35:41 10° WNW 10:39:00 70° NNE 10:42:18 10° E daylight
03 Mar - 12:12:21 10° W 12:15:20 31° SW 12:18:18 10° SSE daylight
04 Mar - 06:30:14 10° SW 06:33:27 50° SSE 06:36:41 10° ENE daylight
04 Mar - 08:06:41 10° W 08:09:57 56° N 08:13:14 10° ENE daylight
04 Mar - 09:43:27 10° WNW 09:46:44 56° N 09:50:00 10° E daylight
04 Mar - 11:20:01 10° WNW 11:23:14 50° SSW 11:26:26 10° SE daylight
05 Mar - 05:38:21 10° SSW 05:41:20 31° SE 05:44:20 10° E visible
05 Mar - 07:14:22 10° W 07:17:41 69° NNW 07:21:00 10° ENE daylight
05 Mar - 08:51:10 10° WNW 08:54:25 50° N 08:57:40 10° E daylight
05 Mar - 10:27:45 10° WNW 10:31:03 76° SSW 10:34:21 10° ESE daylight
05 Mar - 12:04:56 10° W 12:07:07 17° SW 12:09:17 10° S daylight
06 Mar - 04:46:47 10° S 04:49:17 20° SE 04:51:46 10° E visible
06 Mar - 06:22:06 10° WSW 06:25:25 87° SSE 06:28:44 10° ENE visible
06 Mar - 07:58:51 10° WNW 08:02:05 49° N 08:05:20 10° ENE daylight
06 Mar - 09:35:29 10° WNW 09:38:49 77° NNE 09:42:07 10° ESE daylight
06 Mar - 11:12:14 10° W 11:15:05 26° SW 11:17:54 10° SSE daylight
07 Mar - 03:55:55 10° SSE 03:57:16 12° SE 03:58:38 10° ESE visible
07 Mar - 05:29:56 10° SW 05:33:12 59° SSE 05:36:28 10° ENE visible
07 Mar - 07:06:30 10° W 07:09:45 53° N 07:13:01 10° ENE daylight
07 Mar - 08:43:13 10° WNW 08:46:31 60° NNE 08:49:48 10° E daylight
07 Mar - 10:19:48 10° WNW 10:22:57 42° SSW 10:26:06 10° SE daylight
08 Mar - 04:37:56 10° SW 04:41:01 37° SSE 04:44:07 10° ENE visible
08 Mar - 06:14:08 10° W 06:17:25 63° NNW 06:20:43 10° ENE visible
08 Mar - 07:50:55 10° WNW 07:54:11 51° N 07:57:26 10° E daylight
08 Mar - 09:27:28 10° WNW 09:30:46 66° SSW 09:34:02 10° ESE daylight
08 Mar - 11:04:58 10° WSW 11:06:45 14° SW 11:08:31 10° S daylight
09 Mar - 03:46:13 10° SSW 03:48:54 23° SE 03:51:36 10° E visible
09 Mar - 05:21:48 10° WSW 05:25:06 83° NNW 05:28:26 10° ENE visible
09 Mar - 06:58:34 10° WNW 07:01:49 49° N 07:05:03 10° ENE daylight
09 Mar - 08:35:11 10° WNW 08:38:30 86° NNE 08:41:49 10° ESE daylight
09 Mar - 10:12:02 10° W 10:14:42 22° SW 10:17:20 10° SSE daylight
10 Mar - 02:54:57 10° S 02:56:50 14° SE 02:58:43 10° ESE visible
10 Mar - 04:29:33 10° WSW 04:32:50 69° SSE 04:36:08 10° ENE visible
10 Mar - 06:06:11 10° W 06:09:26 51° N 06:12:41 10° ENE visible
10 Mar - 07:42:53 10° WNW 07:46:11 65° NNE 07:49:29 10° E daylight
10 Mar - 09:19:30 10° W 09:22:34 36° SSW 09:25:37 10° SE daylight
